GFSNIL_sfc_rhum_138.txt.gz
RH
87 93 90 90 91 92 96 98 95 92 95 94 95 94 92 91 94 96 94 92 96 98
97 95 95 90 90 93 87 89 94 98 98 97 98 98 95 97 92 92 94 98 99 98
97 97 96 91 92 92 92 92 94 97 98 98 97 97 96 93 91 93 99 99 98 98
96 96 97 93 92 92 93 95 93 93 94 96 95 94 96 97 94 94 94 95 95 96
92 96 93 96 97 92 92 90 90 88 88 89 92 95 94 95 94 93 94 94 93 94
92 94 91 94 96 95 90 89 88 87 87 85 86 91 91 89 89 89 89 89 91 91
92 91 93 93 94 91 90 89 88 88 88 90 85 83 84 85 85 85 88 88 85 82
88 81 79 86 86 90 85 82 79 82 85 86 86 86 88 83 81 84 86 85 80 82
83 78 78 85 85 89 90 86 80 83 89 92 79 75 73 72 80 80 80 81 80 78
76 77 79 84 86 85 89 87 88 91 92 92 89 70 70 73 83 87 89 90 88 82
77 79 80 85 86 86 88 90 88 87 90 92 87 70 70 74 86 87 87 89 90 91
80 80 84 88 87 88 86 88 91 88 85 88 90 71 69 78 84 83 85 87 87 88
82 80 83 86 88 89 88 83 92 90 87 80 87 75 68 78 84 87 83 89 88 74
84 81 81 86 90 90 90 87 91 89 87 88 86 87 70 72 82 82 84 83 86 84

GFSNIL_sfc_rhum_141.txt.gz
RH
83 85 86 81 85 90 92 92 88 86 88 86 86 87 90 91 92 91 94 92 88 86
85 88 88 87 87 87 87 84 83 88 89 88 87 88 90 93 88 89 88 89 88 88
85 84 85 85 88 88 88 88 88 87 89 86 84 86 88 90 90 89 94 94 92 91
83 84 84 84 85 86 88 88 87 84 86 84 85 86 88 87 85 90 89 90 90 94
82 79 80 80 83 85 86 86 86 81 81 81 83 85 85 87 87 89 89 90 90 91
82 79 77 79 80 83 86 88 86 84 83 78 81 84 84 85 83 83 85 85 84 84
78 76 74 74 78 80 79 82 82 84 84 83 79 81 78 76 79 78 80 81 77 72
77 75 67 70 73 77 74 68 70 74 76 77 80 75 73 74 75 77 81 82 76 75
74 71 65 66 70 73 74 67 68 75 78 80 70 74 72 71 72 72 72 72 70 69
72 68 67 68 72 71 73 69 68 72 76 78 74 69 71 76 72 73 72 71 72 66
71 69 68 71 74 75 74 76 70 68 74 77 76 69 71 74 72 74 75 73 73 73
70 70 71 73 74 76 74 75 80 72 72 73 76 71 72 69 67 64 70 72 72 72
72 70 70 71 75 77 76 71 76 76 73 71 68 78 73 68 61 63 67 70 71 73
74 73 70 72 77 77 77 74 73 73 71 68 72 72 71 75 64 61 65 70 71 68

GFSNIL_sfc_rhum_144.txt.gz
RH
67 70 77 80 80 85 86 86 81 81 82 78 74 78 79 82 82 82 88 89 87 89
66 70 75 76 76 80 82 80 78 78 73 79 79 73 72 84 85 86 89 91 92 91
64 65 66 66 68 72 75 80 78 79 80 80 75 69 79 84 83 82 87 89 88 91
60 62 58 58 60 69 76 76 81 76 78 77 72 71 75 78 74 74 83 85 86 91
60 60 60 54 56 66 73 80 83 78 75 73 68 74 77 77 74 77 83 82 83 86
62 60 57 54 55 57 68 79 81 79 77 72 72 73 76 74 78 77 79 79 78 76
55 55 53 51 55 57 59 64 67 70 72 74 71 70 63 64 67 66 66 70 70 65
53 54 52 52 52 54 58 52 53 59 60 61 59 60 59 63 62 62 70 72 67 73
51 50 49 44 43 48 52 47 45 50 56 60 52 72 71 62 55 58 57 56 54 55
51 49 47 45 44 48 49 49 47 46 51 53 54 68 72 71 56 56 53 53 52 48
52 51 46 47 48 47 48 52 51 46 48 53 58 69 72 71 59 58 58 55 51 50
52 52 50 51 50 49 50 51 56 54 52 53 53 74 72 61 50 50 54 53 54 54
53 53 51 50 51 53 54 53 56 55 53 54 44 74 75 63 46 44 50 52 54 70
56 58 52 51 53 56 54 52 50 50 48 48 47 49 74 74 47 44 47 50 52 57

GFSNIL_sfc_rhum_150.txt.gz
RH
75 85 86 86 88 90 88 83 86 84 83 82 80 85 85 88 83 85 91 90 90 91
72 77 85 83 84 85 82 75 75 81 82 84 83 82 81 82 95 91 93 96 95 96
71 70 76 79 78 76 76 80 80 81 83 81 85 78 72 80 89 89 89 92 91 92
69 70 70 73 74 70 72 82 87 82 82 87 80 78 88 87 79 88 91 92 93 93
71 72 74 73 71 67 68 82 88 86 81 85 80 82 86 88 87 90 90 90 89 89
76 75 75 74 72 65 65 76 87 87 88 84 81 80 80 81 83 84 85 84 82 79
78 77 76 74 71 67 65 69 81 85 85 82 80 76 74 71 78 80 80 81 82 80
76 75 74 73 71 66 68 68 69 72 75 79 75 70 78 77 75 81 82 79 78 85
70 69 71 69 69 65 66 68 69 63 63 68 61 74 72 75 79 72 74 76 76 82
69 69 69 69 64 64 63 66 68 63 60 63 67 73 70 74 78 72 70 68 66 52
67 70 69 69 68 64 61 63 68 67 62 62 60 77 72 74 81 75 72 68 66 60
70 72 73 72 68 66 63 64 66 65 66 66 65 79 76 76 75 71 73 67 63 64
70 74 75 74 76 73 69 62 69 66 70 67 65 77 78 76 73 70 70 69 66 67
71 76 79 80 80 78 71 71 68 64 65 64 61 63 79 78 76 65 66 71 72 78

GFSNIL_sfc_rhum_153.txt.gz
RH
79 89 92 92 94 95 95 94 88 84 80 82 82 81 81 90 90 95 94 87 90 93
79 82 90 90 92 94 91 85 85 87 82 84 86 83 82 87 84 96 96 95 95 95
76 77 81 88 89 86 84 85 87 91 85 84 90 81 78 80 86 90 95 94 94 92
77 76 78 80 82 84 80 82 89 91 91 92 91 86 92 92 90 91 93 93 93 92
78 78 79 79 78 78 78 75 88 90 92 92 88 86 89 91 90 91 91 91 90 88
84 84 81 80 80 77 76 74 83 91 92 92 90 88 85 85 87 88 88 86 84 82
87 85 82 81 80 79 75 73 76 90 91 91 88 84 82 80 82 86 83 82 84 83
84 86 84 84 83 80 77 72 74 78 84 88 87 79 82 81 84 88 87 84 83 86
80 83 84 82 82 79 76 74 74 76 74 76 69 73 77 76 85 82 82 82 80 83
74 80 81 79 80 77 75 74 74 77 75 71 71 71 78 77 85 84 85 84 79 74
68 75 79 83 79 76 76 71 69 69 70 67 62 71 78 79 87 85 81 76 74 68
68 73 77 83 79 76 76 68 70 69 72 72 65 71 79 80 89 80 82 76 74 72
69 75 78 80 84 82 78 70 72 66 73 69 64 70 80 80 85 82 80 83 76 72
69 74 79 84 87 85 82 79 78 73 67 71 67 69 75 80 83 72 72 76 80 76

GFSNIL_sfc_rhum_156.txt.gz
RH
81 89 92 92 95 96 96 95 92 93 90 78 80 84 84 86 90 91 97 98 93 92
80 84 88 90 94 96 94 89 91 91 90 80 81 88 82 89 87 85 92 96 96 97
80 82 84 87 91 93 92 89 88 90 92 88 87 83 81 86 89 93 95 95 96 95
84 82 83 85 86 90 89 87 86 90 92 93 94 91 92 93 92 94 94 93 94 94
86 85 85 84 84 84 85 84 83 87 93 93 94 92 91 91 91 93 93 91 90 90
88 89 87 84 84 83 84 84 82 86 92 92 93 93 92 90 89 91 91 88 88 87
86 90 89 87 87 85 84 83 82 80 88 92 92 93 91 88 88 90 89 86 85 84
80 86 89 90 90 86 86 80 79 78 82 90 90 88 92 90 89 90 91 88 84 85
70 76 83 88 90 91 88 87 82 79 78 82 73 80 85 86 87 89 92 91 87 83
62 64 69 80 89 90 90 88 84 79 81 77 76 72 77 81 88 88 92 92 87 84
64 66 68 81 87 89 90 88 84 79 77 75 70 72 76 79 89 89 90 90 89 83
65 69 73 78 78 84 88 87 83 79 80 80 69 73 75 79 92 91 89 86 82 80
70 74 70 71 75 84 86 82 85 76 76 72 67 71 75 76 89 89 85 87 82 75
69 70 71 82 88 89 90 88 85 80 73 73 66 68 71 77 91 78 83 77 76 77

GFSNIL_sfc_rhum_159.txt.gz
RH
83 87 89 90 94 96 96 95 92 94 94 91 86 81 84 87 89 91 94 94 97 94
87 87 84 89 93 95 94 90 93 92 93 92 91 80 82 88 91 88 89 94 97 98
85 86 84 89 90 92 93 92 92 91 92 93 93 92 90 88 87 92 96 95 96 96
90 88 89 90 88 89 90 91 91 89 90 92 94 94 95 94 94 95 95 94 94 93
89 90 91 91 89 88 89 90 90 88 88 91 93 94 95 94 92 94 94 94 93 91
80 88 90 90 90 88 88 89 89 87 88 89 92 93 95 94 93 92 93 94 92 90
70 77 85 88 90 90 90 90 90 87 83 86 90 92 94 95 94 93 92 92 91 88
68 73 80 85 88 90 92 89 90 88 85 85 86 83 93 95 94 93 92 92 91 88
62 66 68 73 78 88 91 92 92 91 86 86 75 77 84 88 94 93 93 93 92 90
65 67 68 70 80 87 90 91 92 92 91 86 81 76 79 84 93 93 92 92 93 90
68 68 70 74 78 82 88 90 91 91 89 86 78 77 79 80 90 92 91 90 91 93
72 74 77 77 72 78 87 89 91 90 89 90 80 78 79 81 90 92 89 88 89 89
75 78 75 71 77 86 89 90 91 89 89 82 83 74 76 79 87 92 83 90 83 79
72 76 76 80 90 92 92 92 92 92 90 87 80 77 72 77 90 83 81 82 79 78

GFSNIL_sfc_rhum_165.txt.gz
RH
73 74 73 73 72 75 77 75 73 74 76 76 75 74 75 75 76 80 90 86 86 83
67 72 73 74 75 75 75 74 75 75 76 75 75 74 75 78 79 78 85 87 84 82
60 65 70 74 75 76 75 76 76 77 77 76 75 73 73 78 79 80 81 81 81 81
55 60 65 70 72 74 76 76 76 75 76 76 75 73 74 75 78 82 80 80 82 81
58 59 59 59 64 70 72 74 76 75 76 76 75 74 74 74 72 79 82 80 81 81
59 59 57 59 62 64 69 70 71 76 77 75 76 75 75 73 72 74 78 81 82 80
56 58 58 62 64 66 64 68 68 70 73 77 75 76 74 73 73 74 75 81 83 80
60 61 61 64 64 63 66 64 68 71 73 78 79 76 77 76 73 73 74 79 81 84
61 62 63 63 62 64 64 62 63 66 71 78 76 81 84 82 78 78 77 76 76 78
65 65 64 65 66 67 64 66 68 70 73 75 75 82 83 86 82 84 79 78 77 76
68 69 69 71 72 70 67 71 74 75 77 78 75 81 82 85 80 84 84 80 75 72
70 72 72 72 70 71 72 74 76 79 80 78 74 82 82 79 81 83 83 82 78 76
74 76 74 72 71 73 76 76 77 75 75 79 74 79 80 77 78 80 79 76 78 83
73 74 71 72 74 74 73 75 73 72 70 72 74 75 80 79 79 81 82 80 76 73

GFSNIL_sfc_rhum_168.txt.gz
RH
49 49 48 49 50 51 53 54 55 57 57 58 57 55 52 53 59 62 67 68 68 72
40 45 46 48 48 50 51 53 55 56 57 56 57 57 55 51 54 61 65 69 69 66
38 39 41 44 46 47 49 52 55 56 56 56 56 56 56 55 53 56 62 65 66 67
38 40 38 38 40 42 48 49 52 52 54 55 56 56 58 57 55 54 54 60 66 67
42 41 40 38 39 41 44 46 50 50 50 50 53 55 57 60 57 56 55 54 59 64
41 41 41 41 41 41 41 43 44 46 48 47 49 52 56 58 58 57 56 54 54 55
39 41 42 44 46 46 43 45 44 44 45 50 50 53 56 57 59 58 57 58 58 55
44 44 44 46 47 45 48 45 44 44 43 44 49 53 56 59 60 59 59 60 60 62
45 44 45 45 46 47 47 45 45 46 50 56 50 69 82 79 63 62 64 65 60 59
46 47 48 49 48 48 48 48 49 50 53 56 56 76 80 84 70 69 68 66 65 63
49 50 50 51 52 50 49 51 52 51 51 54 53 76 81 82 69 65 64 65 64 62
50 52 52 53 51 51 52 53 54 53 55 56 53 74 80 78 59 58 59 59 62 63
52 54 52 52 53 54 54 52 54 53 52 60 54 69 78 76 58 56 56 56 58 77
53 53 52 53 55 57 54 53 51 51 47 48 53 55 74 79 65 62 61 59 56 55

GFSNIL_sfc_rhum_171.txt.gz
RH
44 46 46 46 47 48 49 50 50 53 55 56 55 55 56 57 55 56 66 68 68 67
37 41 44 44 44 46 46 46 48 50 52 53 54 56 57 57 55 54 60 68 71 66
36 37 39 41 43 43 42 44 48 50 51 52 52 53 56 59 57 56 57 58 65 66
37 39 37 37 38 39 42 43 44 45 48 50 50 51 55 58 58 59 58 57 60 65
39 40 39 37 37 38 39 42 42 44 45 46 46 47 51 56 56 59 61 60 59 58
40 40 39 40 40 39 39 40 40 42 44 44 46 47 49 51 54 58 60 61 60 57
38 40 41 43 45 46 43 44 44 43 42 45 43 46 49 51 55 57 58 61 63 60
40 40 41 44 45 44 47 45 44 44 43 45 46 43 50 55 56 59 60 61 61 65
40 40 42 43 44 45 46 45 44 47 50 57 50 66 74 77 69 64 61 63 62 60
41 43 43 45 46 48 47 46 49 49 49 50 50 67 77 82 75 72 69 66 67 65
44 45 46 47 50 49 47 49 49 49 50 53 52 68 76 81 74 66 65 65 65 67
45 48 48 50 48 49 50 51 52 49 52 53 51 67 75 78 64 58 57 55 59 65
48 50 50 50 52 52 53 52 53 52 50 55 48 60 74 75 64 59 57 56 56 69
45 52 50 50 55 59 57 56 55 54 51 51 53 56 74 76 72 64 63 63 60 58

GFSNIL_sfc_rhum_174.txt.gz
RH
60 68 68 67 68 71 73 72 68 70 73 74 74 74 74 78 78 74 81 87 87 86
54 56 61 60 62 67 66 61 62 66 69 71 72 74 76 81 79 75 75 82 88 90
53 54 56 59 59 60 60 59 62 65 68 70 70 71 74 81 79 78 79 75 84 89
55 55 55 56 56 56 57 57 60 60 63 66 68 68 72 77 78 80 81 78 78 80
55 56 57 57 55 55 56 58 58 58 59 61 63 65 68 72 71 78 82 82 81 78
55 57 58 58 58 57 59 60 61 60 61 60 62 64 66 67 70 74 78 81 82 80
55 57 58 60 61 62 61 62 63 62 61 62 60 59 62 63 70 75 74 78 81 82
55 55 56 58 60 60 63 61 62 62 61 62 62 58 67 71 76 80 80 80 79 82
54 55 57 59 60 62 63 62 61 63 65 70 58 68 72 80 90 87 86 86 81 79
55 57 60 60 62 65 66 65 66 67 67 68 68 68 73 76 89 90 92 91 88 84
58 60 62 64 66 68 67 68 69 69 68 70 64 71 72 78 89 88 86 84 86 87
61 63 66 68 68 68 70 72 74 68 69 71 68 71 71 78 87 82 78 70 71 75
59 64 69 70 71 71 75 72 74 70 71 73 72 71 72 78 89 89 79 77 72 73
59 60 63 69 70 76 82 80 82 76 74 72 73 76 72 77 90 90 90 87 82 76

GFSNIL_sfc_rhum_177.txt.gz
RH
66 72 73 72 73 75 77 78 74 74 76 76 78 82 82 86 87 84 85 85 93 92
59 59 63 64 68 72 71 66 66 70 74 75 78 78 82 88 87 86 84 84 87 94
58 60 61 63 62 62 64 63 63 65 68 70 73 75 79 86 87 89 88 83 86 90
59 59 60 62 62 62 63 62 63 65 66 68 70 71 75 77 80 86 89 89 88 84
59 60 62 62 61 62 63 65 66 65 65 66 66 68 71 75 74 79 83 86 90 88
59 61 62 63 63 63 65 67 68 67 69 68 68 68 69 70 72 76 79 83 87 88
58 60 61 63 64 66 66 68 68 68 69 70 68 68 70 70 75 80 79 82 86 88
59 61 62 63 65 65 68 66 68 68 67 69 68 62 75 79 84 88 88 88 86 85
60 61 62 64 66 67 69 70 68 68 70 75 61 70 74 78 87 87 90 91 89 90
61 62 64 65 68 70 71 73 72 73 72 73 74 71 75 78 86 90 93 93 92 89
63 64 67 69 72 74 74 73 75 75 75 76 68 73 75 75 86 88 88 88 88 90
66 68 70 73 75 76 77 77 80 77 78 80 76 76 79 75 85 89 89 82 81 82
63 64 66 69 74 77 78 79 84 81 82 80 84 75 78 77 90 93 92 91 87 81
59 63 65 66 73 77 79 86 91 91 87 85 81 78 77 78 90 94 96 97 95 90

GFSNIL_sfc_rhum_180.txt.gz
RH
79 80 78 77 77 78 79 79 77 78 77 77 79 82 86 92 93 93 93 91 93 94
63 63 67 68 71 74 72 64 67 68 69 71 74 77 83 91 92 92 93 93 91 93
62 63 64 67 65 66 66 66 66 67 68 69 71 73 78 85 86 91 94 91 93 93
62 63 64 65 66 66 67 66 68 69 70 70 70 70 74 77 77 81 87 90 93 92
61 63 65 66 65 67 69 70 71 71 71 72 72 74 75 76 76 78 80 82 87 90
60 62 64 66 66 67 68 70 71 70 72 73 74 75 74 75 77 79 83 85 89 90
60 63 66 66 67 68 69 71 72 72 72 73 72 73 74 76 82 84 83 86 87 88
61 64 66 67 68 69 71 70 72 72 70 72 71 64 75 81 85 90 89 88 87 87
62 64 66 68 69 71 72 73 73 73 74 77 64 70 76 79 90 88 89 90 87 91
63 65 67 69 72 73 75 77 76 76 77 78 78 71 74 79 88 90 91 91 91 89
67 69 70 73 74 77 79 78 80 79 80 84 76 74 76 81 88 89 88 90 91 92
71 73 70 70 71 74 80 80 81 81 86 90 86 79 81 84 84 90 91 90 90 92
67 69 69 68 71 73 80 80 81 80 88 87 91 82 79 84 92 93 94 92 94 88
60 60 61 65 68 69 71 76 82 83 85 91 89 90 79 80 90 94 95 96 97 94